| time (UTC) | temp F | wind direction | speed MPH | gust MPH | rain 1hr in | rain 24hr in | rain mn in | humidity % | barometer mb |
| 20260507070046 | 63 | 0 | 0.0 | 3.0 | 0.04 | 2.08 | 1.26 | 95 | 1011.9 |
| 20260507064543 | 63 | 41 | 0.0 | 1.0 | 0.12 | 2.08 | 1.26 | 96 | 1012.2 |
| 20260507063047 | 63 | 0 | 0.0 | 1.0 | 0.17 | 2.08 | 1.26 | 96 | 1012.2 |
| 20260507061545 | 63 | 0 | 0.0 | 0.0 | 0.20 | 2.06 | 1.24 | 96 | 1012.2 |
| 20260507060039 | 63 | 0 | 0.0 | 0.0 | 0.19 | 2.03 | 1.21 | 96 | 1012.4 |
| 20260507054544 | 63 | 0 | 0.0 | 1.0 | 0.17 | 1.96 | 1.14 | 95 | 1013.0 |
| 20260507053045 | 63 | 0 | 0.0 | 0.0 | 0.29 | 1.91 | 1.09 | 95 | 1013.2 |
| 20260507051544 | 63 | 0 | 0.0 | 0.0 | 0.87 | 1.86 | 1.04 | 95 | 1013.4 |
| 20260507050050 | 63 | 0 | 0.0 | 1.0 | 1.00 | 1.83 | 1.01 | 95 | 1013.5 |
| 20260507044546 | 63 | 0 | 0.0 | 0.0 | 1.03 | 1.79 | 0.97 | 94 | 1013.9 |
| 20260507043041 | 63 | 0 | 0.0 | 2.0 | 0.86 | 1.58 | 0.76 | 93 | 1014.6 |
| 20260507041547 | 63 | 313 | 0.0 | 2.0 | 0.31 | 0.98 | 0.16 | 93 | 1013.2 |
| 20260507040046 | 63 | 0 | 0.0 | 0.0 | 0.26 | 0.82 | 0.00 | 93 | 1013.6 |
| 20260507034546 | 63 | 0 | 0.0 | 0.0 | 0.35 | 0.76 | 0.76 | 93 | 1013.5 |
| 20260507033039 | 63 | 0 | 0.0 | 0.0 | 0.31 | 0.72 | 0.72 | 93 | 1013.8 |
| 20260507031538 | 63 | 0 | 0.0 | 1.0 | 0.27 | 0.67 | 0.67 | 93 | 1013.7 |
| 20260507030047 | 64 | 0 | 0.0 | 3.0 | 0.16 | 0.55 | 0.55 | 92 | 1014.2 |
| 20260507024551 | 66 | 82 | 1.0 | 5.0 | 0.02 | 0.41 | 0.41 | 92 | 1014.0 |
| 20260507023044 | 69 | 62 | 0.0 | 1.0 | 0.02 | 0.41 | 0.41 | 94 | 1013.9 |
| 20260507021542 | 69 | 0 | 0.0 | 0.0 | 0.01 | 0.40 | 0.40 | 93 | 1013.1 |
| 20260507020052 | 69 | 0 | 0.0 | 0.0 | 0.00 | 0.39 | 0.39 | 93 | 1012.9 |
| 20260507014557 | 69 | 0 | 0.0 | 0.0 | 0.00 | 0.39 | 0.39 | 93 | 1012.7 |
| 20260507013042 | 69 | 0 | 0.0 | 0.0 | 0.00 | 0.39 | 0.39 | 93 | 1013.1 |
| 20260507011537 | 69 | 0 | 0.0 | 0.0 | 0.02 | 0.39 | 0.39 | 93 | 1013.4 |
| 20260507010044 | 70 | 0 | 0.0 | 0.0 | 0.03 | 0.39 | 0.39 | 93 | 1013.1 |
| 20260507004543 | 70 | 0 | 0.0 | 0.0 | 0.03 | 0.39 | 0.39 | 93 | 1013.0 |
| 20260507003039 | 70 | 0 | 0.0 | 1.0 | 0.03 | 0.39 | 0.39 | 93 | 1013.1 |
| 20260507001538 | 70 | 0 | 0.0 | 0.0 | 0.01 | 0.37 | 0.37 | 92 | 1013.1 |
| 20260507000038 | 70 | 0 | 0.0 | 0.0 | 0.10 | 0.36 | 0.36 | 92 | 1013.2 |
| 20260506234539 | 70 | 0 | 0.0 | 0.0 | 0.28 | 0.36 | 0.36 | 92 | 1013.1 |
| 20260506233045 | 70 | 0 | 0.0 | 0.0 | 0.36 | 0.36 | 0.36 | 92 | 1013.0 |
| 20260506231551 | 71 | 0 | 0.0 | 1.0 | 0.36 | 0.36 | 0.36 | 92 | 1013.1 |
| 20260506230053 | 72 | 0 | 0.0 | 1.0 | 0.26 | 0.26 | 0.26 | 89 | 1013.2 |
| 20260506224549 | 75 | 0 | 0.0 | 1.0 | 0.07 | 0.07 | 0.07 | 83 | 1013.0 |
| 20260506223052 | 76 | 0 | 0.0 | 2.0 | 0.00 | 0.00 | 0.00 | 79 | 1012.4 |
| 20260506221546 | 76 | 0 | 0.0 | 2.0 | 0.00 | 0.00 | 0.00 | 79 | 1012.9 |
| 20260506220045 | 77 | 0 | 0.0 | 2.0 | 0.00 | 0.00 | 0.00 | 79 | 1012.9 |
| 20260506214544 | 77 | 326 | 0.0 | 5.0 | 0.00 | 0.00 | 0.00 | 78 | 1012.7 |
| 20260506213100 | 77 | 248 | 0.0 | 3.0 | 0.00 | 0.00 | 0.00 | 77 | 1012.7 |
| 20260506211549 | 78 | 224 | 0.0 | 3.0 | 0.00 | 0.00 | 0.00 | 76 | 1012.6 |
| 20260506210047 | 78 | 223 | 0.0 | 3.0 | 0.00 | 0.00 | 0.00 | 75 | 1012.8 |
| 20260506204550 | 77 | 0 | 0.0 | 3.0 | 0.00 | 0.00 | 0.00 | 75 | 1012.9 |
| 20260506203048 | 77 | 0 | 0.0 | 1.0 | 0.00 | 0.00 | 0.00 | 75 | 1013.4 |
| 20260506201551 | 77 | 266 | 0.0 | 2.0 | 0.00 | 0.00 | 0.00 | 75 | 1013.9 |
| 20260506200043 | 78 | 162 | 0.0 | 2.0 | 0.00 | 0.00 | 0.00 | 73 | 1013.8 |
| 20260506194552 | 79 | 0 | 0.0 | 2.0 | 0.00 | 0.00 | 0.00 | 71 | 1013.9 |
| 20260506193046 | 80 | 241 | 0.0 | 2.0 | 0.00 | 0.00 | 0.00 | 69 | 1014.1 |
| 20260506191545 | 80 | 0 | 0.0 | 1.0 | 0.00 | 0.00 | 0.00 | 69 | 1014.3 |
| 20260506190044 | 80 | 221 | 0.0 | 4.0 | 0.00 | 0.00 | 0.00 | 69 | 1014.4 |
| 20260506184546 | 81 | 207 | 0.0 | 1.0 | 0.00 | 0.00 | 0.00 | 70 | 1014.4 |
| 20260506183058 | 81 | 238 | 0.0 | 2.0 | 0.00 | 0.00 | 0.00 | 68 | 1015.0 |
| 20260506181545 | 79 | 0 | 0.0 | 2.0 | 0.00 | 0.00 | 0.00 | 71 | 1014.9 |
| 20260506180050 | 79 | 0 | 1.0 | 6.0 | 0.00 | 0.00 | 0.00 | 70 | 1015.0 |
| 20260506174544 | 79 | 236 | 1.0 | 8.0 | 0.00 | 0.00 | 0.00 | 71 | 1014.8 |
| 20260506173050 | 80 | 0 | 0.0 | 3.0 | 0.00 | 0.00 | 0.00 | 70 | 1014.7 |
| 20260506171543 | 79 | 209 | 0.0 | 5.0 | 0.00 | 0.00 | 0.00 | 71 | 1014.6 |
| 20260506170100 | 78 | 0 | 1.0 | 5.0 | 0.00 | 0.00 | 0.00 | 72 | 1014.7 |
| 20260506164538 | 77 | 174 | 0.0 | 1.0 | 0.00 | 0.00 | 0.00 | 75 | 1015.0 |
| 20260506163058 | 76 | 221 | 0.0 | 2.0 | 0.00 | 0.00 | 0.00 | 75 | 1015.3 |
| 20260506161544 | 75 | 217 | 0.0 | 3.0 | 0.00 | 0.00 | 0.00 | 77 | 1015.5 |
| 20260506160046 | 74 | 271 | 1.0 | 6.0 | 0.00 | 0.00 | 0.00 | 78 | 1015.6 |
| 20260506154543 | 72 | 273 | 0.0 | 4.0 | 0.00 | 0.00 | 0.00 | 80 | 1015.6 |
| 20260506153047 | 71 | 0 | 0.0 | 7.0 | 0.00 | 0.00 | 0.00 | 82 | 1016.1 |
| 20260506151546 | 69 | 0 | 0.0 | 1.0 | 0.00 | 0.00 | 0.00 | 83 | 1016.4 |
| 20260506150046 | 69 | 199 | 0.0 | 2.0 | 0.00 | 0.00 | 0.00 | 83 | 1016.4 |
| 20260506144558 | 69 | 0 | 0.0 | 3.0 | 0.00 | 0.00 | 0.00 | 82 | 1016.5 |
| 20260506143045 | 69 | 197 | 0.0 | 4.0 | 0.00 | 0.00 | 0.00 | 83 | 1016.2 |
| 20260506141539 | 69 | 0 | 0.0 | 1.0 | 0.00 | 0.00 | 0.00 | 84 | 1016.2 |
| 20260506140043 | 68 | 0 | 0.0 | 4.0 | 0.00 | 0.00 | 0.00 | 85 | 1016.1 |
| 20260506134545 | 68 | 0 | 0.0 | 1.0 | 0.00 | 0.00 | 0.00 | 86 | 1015.8 |
| 20260506133044 | 68 | 0 | 0.0 | 1.0 | 0.00 | 0.00 | 0.00 | 86 | 1015.4 |
| 20260506131545 | 68 | 0 | 0.0 | 1.0 | 0.00 | 0.00 | 0.00 | 86 | 1015.4 |
| 20260506130046 | 67 | 0 | 0.0 | 2.0 | 0.00 | 0.00 | 0.00 | 87 | 1015.3 |
| 20260506124540 | 67 | 0 | 0.0 | 0.0 | 0.00 | 0.00 | 0.00 | 88 | 1015.1 |
| 20260506123039 | 66 | 179 | 0.0 | 1.0 | 0.00 | 0.00 | 0.00 | 89 | 1015.1 |
| 20260506121538 | 66 | 0 | 0.0 | 1.0 | 0.00 | 0.00 | 0.00 | 89 | 1015.1 |
| 20260506120043 | 65 | 0 | 0.0 | 1.0 | 0.00 | 0.00 | 0.00 | 89 | 1014.9 |
| 20260506114539 | 65 | 0 | 0.0 | 2.0 | 0.00 | 0.00 | 0.00 | 89 | 1014.8 |
| 20260506113045 | 65 | 0 | 0.0 | 1.0 | 0.00 | 0.00 | 0.00 | 89 | 1014.6 |
| 20260506111546 | 65 | 0 | 0.0 | 1.0 | 0.00 | 0.00 | 0.00 | 88 | 1014.2 |
| 20260506110044 | 65 | 0 | 0.0 | 2.0 | 0.00 | 0.00 | 0.00 | 88 | 1014.2 |
| 20260506104545 | 65 | 216 | 0.0 | 0.0 | 0.00 | 0.00 | 0.00 | 88 | 1014.0 |
| 20260506103055 | 65 | 0 | 0.0 | 1.0 | 0.00 | 0.00 | 0.00 | 88 | 1013.9 |
| 20260506101541 | 65 | 0 | 0.0 | 1.0 | 0.00 | 0.00 | 0.00 | 88 | 1013.5 |
| 20260506100047 | 65 | 244 | 0.0 | 1.0 | 0.00 | 0.00 | 0.00 | 88 | 1013.6 |
| 20260506094539 | 65 | 0 | 0.0 | 1.0 | 0.00 | 0.00 | 0.00 | 87 | 1013.4 |
| 20260506093037 | 65 | 150 | 0.0 | 1.0 | 0.00 | 0.00 | 0.00 | 86 | 1013.0 |
| 20260506091545 | 65 | 0 | 0.0 | 4.0 | 0.00 | 0.00 | 0.00 | 85 | 1013.1 |
| 20260506090049 | 65 | 0 | 0.0 | 1.0 | 0.00 | 0.00 | 0.00 | 84 | 1013.2 |
| 20260506084558 | 65 | 0 | 0.0 | 1.0 | 0.00 | 0.00 | 0.00 | 83 | 1013.3 |
| 20260506083042 | 65 | 170 | 0.0 | 1.0 | 0.00 | 0.00 | 0.00 | 83 | 1013.3 |
| 20260506081540 | 64 | 0 | 0.0 | 1.0 | 0.00 | 0.00 | 0.00 | 82 | 1013.3 |
| 20260506073054 | 64 | 0 | 0.0 | 1.0 | 0.00 | 0.00 | 0.00 | 78 | 1013.4 |
| 20260506071541 | 65 | 0 | 0.0 | 0.0 | 0.00 | 0.00 | 0.00 | 76 | 1013.2 |